Location: Beutels
(47.8767°N, 9.8584°E)
Time: 21:54:49
(UTC+00:00)

Cosmos 2058 Rocket - Pass Details

Date: 19 May 2025
Orbit: 604 x 634 km, 82.5° (Epoch: 15 June)

Event Time Altitude Azimuth Distance (km) Brightness Sun altitude
Rises 20:36:51 0° 203° (SSW) 2,917 6.2 -13.3°
Reaches altitude 10° 20:39:08 10° 209° (SSW) 2,012 5.5 -13.5°
Maximum altitude 20:43:28 48° 284° (WNW) 827 4.0 -13.9°
Drops below altitude 10° 20:47:48 10° 359° (N) 2,015 6.5 -14.4°
Sets 20:50:06 0° 5° (N) 2,923 7.3 -14.6°
